Find Starlink 3173

NORAD ID: 51111 Int'l Des: 2022-005 Owner: SPXS Country: US Constellation: starlink operational
LEOCIRCULAR

現在のビュー

3D地球を読み込み中...

About Starlink 3173

Starlink 3173 (NORAD 51111) is a starlink constellation satellite (v1.5) launched Jan 19, 2022 by SPXS of US. It operates in LEO, CIRCULAR orbit with a mass of 297.00 kg.

Starlink 3173について

説明を読み込み中...

次回通過

Passes for default location (London). Set your location on the main map for personalized predictions.

高度履歴

Loading altitude history...

軌道要素

1 51111U 22005H 26171.41531963 -.00000041 00000-0 15540-4 0 9992
2 51111 53.1585 187.8511 0001099 78.2935 281.8180 15.08829723244386
Epoch: Jun 20, 2026 • Age: 16 hours

現在のステータス

高度 541.7 km
速度 7.60 km/s
衛星直下点 34.69°N, 84.38°W
打ち上げ日 Jan 19, 2022
運用期間 4.4 years
タイプ internet

技術仕様

分類 Payload
質量 297.00 kg
乾燥質量 275.00 kg
総質量 297.00 kg
長さ 0.20 m
直径 2.80 m
スパン 9.00 m
形状 Box + pan
製造者 SPXS
バスタイプ Starlink
フェーズステータス In Orbit
所有者/国 SPXS/US

Most Searched